TimeCDT,TemperatureF,Dew PointF,Humidity,Sea Level PressureIn,VisibilityMPH,Wind Direction,Wind SpeedMPH,Gust SpeedMPH,PrecipitationIn,Events,Conditions,WindDirDegrees,DateUTC
12:56 AM,57.0,52.0,83,30.04,10.0,East,3.5,-,N/A,,Clear,90,2013-09-03 05:56:00
1:56 AM,55.9,52.0,87,30.04,10.0,Variable,3.5,-,N/A,,Clear,0,2013-09-03 06:56:00
2:56 AM,55.9,52.0,87,30.05,10.0,Calm,Calm,-,N/A,,Clear,0,2013-09-03 07:56:00
3:56 AM,57.0,52.0,83,30.06,10.0,ESE,4.6,-,N/A,,Clear,120,2013-09-03 08:56:00
4:56 AM,54.0,51.1,90,30.06,10.0,Calm,Calm,-,N/A,,Clear,0,2013-09-03 09:56:00
5:56 AM,54.0,51.1,90,30.06,10.0,Calm,Calm,-,N/A,,Clear,0,2013-09-03 10:56:00
6:56 AM,57.0,52.0,83,30.07,10.0,SSE,4.6,-,N/A,,Partly Cloudy,150,2013-09-03 11:56:00
7:56 AM,60.1,54.0,80,30.07,10.0,SSE,4.6,-,N/A,,Partly Cloudy,160,2013-09-03 12:56:00
8:56 AM,64.9,54.0,68,30.06,10.0,South,10.4,-,N/A,,Partly Cloudy,180,2013-09-03 13:56:00
9:56 AM,68.0,55.9,65,30.07,10.0,South,9.2,-,N/A,,Partly Cloudy,180,2013-09-03 14:56:00
10:56 AM,73.0,57.0,57,30.05,10.0,SSE,11.5,-,N/A,,Partly Cloudy,160,2013-09-03 15:56:00
11:56 AM,75.9,61.0,60,30.04,10.0,SSE,10.4,-,N/A,,Partly Cloudy,160,2013-09-03 16:56:00
12:56 PM,79.0,63.0,58,30.02,10.0,SSE,11.5,-,N/A,,Scattered Clouds,160,2013-09-03 17:56:00
1:56 PM,81.0,63.0,54,30.01,10.0,SSE,13.8,-,N/A,,Scattered Clouds,160,2013-09-03 18:56:00
2:56 PM,82.0,64.9,56,29.99,10.0,South,13.8,-,N/A,,Mostly Cloudy,190,2013-09-03 19:56:00
3:56 PM,82.0,66.0,58,29.99,10.0,SSW,9.2,-,N/A,,Mostly Cloudy,200,2013-09-03 20:56:00
4:56 PM,81.0,64.9,58,29.99,10.0,SSW,10.4,-,N/A,,Mostly Cloudy,200,2013-09-03 21:56:00
5:56 PM,81.0,66.0,60,29.99,10.0,SSW,10.4,-,N/A,,Mostly Cloudy,200,2013-09-03 22:56:00
6:56 PM,78.1,66.0,66,29.98,10.0,South,10.4,-,N/A,,Mostly Cloudy,180,2013-09-03 23:56:00
7:56 PM,75.9,66.0,71,29.98,10.0,South,6.9,-,N/A,,Mostly Cloudy,170,2013-09-04 00:56:00
8:56 PM,75.9,66.0,71,29.99,10.0,SSE,6.9,-,N/A,,Mostly Cloudy,160,2013-09-04 01:56:00
9:56 PM,73.0,66.0,79,29.99,10.0,South,9.2,-,N/A,,Mostly Cloudy,180,2013-09-04 02:56:00
10:56 PM,71.1,66.0,84,30.00,10.0,Calm,Calm,-,N/A,,Scattered Clouds,0,2013-09-04 03:56:00
11:56 PM,71.1,64.9,81,30.00,10.0,South,6.9,-,N/A,,Scattered Clouds,190,2013-09-04 04:56:00